Location: Madrid
(40.4000°N, 3.6830°W)
Time: 04:15:15
(UTC+01:00)

ISS - Pass Details

Date: 11 November 2019
Orbit: 412 x 421 km, 51.6° (Epoch: 12 November)

Event Time Altitude Azimuth Distance (km) Brightness Sun altitude
Exits shadow 05:47:39 31° 55° (NE) 755 -2.1 -24.5°
Drops below altitude 10° 05:50:07 10° 97° (E) 1,497 0.1 -24.0°
Sets 05:52:19 0° 106° (ESE) 2,357 1.4 -23.6°
